OBJECT AL, 57200

Orbit data source: Space-Track

You're viewing an Uncataloged Satellite

Recently launched and/or uncataloged satellites may have evolving metadata. Metadata may include but not limited to: Owner, Maufacturer, Bus, Motor, and Mission.

OBJECT AL, 57200 is a satellite in SSO that was launched on Tue, 27 Jun 2023 UTC via a SOYUZ-2-1B launch vehicle from the Vostochny Cosmodrome (VOSTO). Unknown objects in Earth's orbit typically refer to objects detected orbiting the Earth but have not yet been identified or cataloged. These objects could be anything from previously untracked satellites, spent rocket stages, debris from satellite collisions, or even natural meteoroids temporarily captured by Earth's gravity.

Loading next visibility...
Identifier
57200, 2023-091AL
Orbit
SSO
Country
Flag of TBDTBD
Related business
None
Manufacturer
Unknown
Mission
Operational Civil Technology
Bus & Motor
Unknown
Mass
Unknown
Launch date (UTC)
2023-06-27 (3 years ago)
Launch vehicle
SOYUZ-2-1B
Launch site
Vostochny Cosmodrome (VOSTO)
Object type
Unknown
Shape & HBR
Box, 0.1 m
Radar Cross Section
0.080 m², Small (<0.1 m²)

Expand to show TLE details & history
Last TLE update: 10 hours ago

TLE from 10 hours ago
0 OBJECT AL
1 57200U 23091AL  26104.26858791  .00014094  00000-0  32752-3 0  9998
2 57200  97.5100 176.5701 0005092 280.2919  79.7754 15.42446091155143
Epoch: 2026-04-14T06:26Z
TLE epoch observation values (Epoch: 2026-04-14T06:26:45.995Z)
Latitude
0.00001°
Longitude
-122.56882°
Altitude
441.396 km
Speed
7.647 km/s
True Right ascension
11h 46m 16s
True Declination
0° 00' 00"
Sunlit
Object was in full shadow at epoch
Visualization orbit readout
Latitude
Unknown
Longitude
Unknown
Altitude
Unknown
Speed
Unknown
Apparent Right ascension
Unknown
Apparent Declination
Unknown
Sunlit
N/A
Visualization observer readout
Local Sidereal Time
22:31:23
Azimuth
Unknown
Elevation
Unknown
Doppler factor
Unknown
Orbital elements
Apogee altitude
439.303 km
Perigee altitude
432.363 km
Semi-major axis
6,813.97 km
Eccentricity
0.00051
Inclination
97.51°
RAAN
176.5701°
Arg. of periapsis
280.2919°
True anomaly
79.83283°
Mean anomaly
79.7754°
Eccentric anomaly
79.80411°
Mean motion
3.85872 °/min
Orbital period
93.3 mins
BSTAR
0.00032752
Loading maneuver chart data...
Computing Atmospheric mass density...
Loading historical data...
Loading historical data...
Loading historical data...
Loading historical data...
Loading historical data...
Loading historical data...
Loading historical data...

Documentation

Showing up to 5 results
|